Location: Unspecified
(0.0000°N, 0.0000°E)
Time: 02:14:41
(UTC+00:00)

TRS 6 - Pass Details

Date: 21 February 2019
Orbit: 3561 x 3726 km, 87.3° (Epoch: 14 October)

Event Time Altitude Azimuth Distance (km) Brightness Sun altitude
Rises 20:55:10 0° 197° (SSW) 7,708 ? -39.6°
Reaches altitude 10° 21:00:06 10° 205° (SSW) 6,693 ? -40.8°
Maximum altitude 21:16:25 38° 266° (W) 4,815 ? -44.7°
Drops below altitude 10° 21:33:19 10° 329° (NNW) 6,790 ? -48.8°
Sets 21:38:38 0° 338° (NNW) 7,829 ? -50.1°
